EAG2189 SBGR-SBFL

Flight info

Callsign EAG2189
Flight time 0h 51m
Altitude 32000
Route MADNI UZ92 PUBIS
Aircraft B737/M-SDE2E3FGHIRWXY/LB1

Departure

Time 2026-04-26 12:26
Airport São Paulo/Guarulhos–Governor André Franco Montoro International Airport (SBGR)

Arrival

Time 2026-04-26 13:17
Airport Hercílio Luz International Airport (SBFL)
Time Latitude Longitude Altitude Speed Heading
2026-04-26 12:02 -23.42839 -46.48062 2460 ft 0 kts 85°
2026-04-26 12:17 -23.42840 -46.48068 2460 ft 4 kts 84°
2026-04-26 12:18 -23.42845 -46.48096 2464 ft 4 kts 71°
2026-04-26 12:18 -23.42851 -46.48123 2460 ft 4 kts 109°
2026-04-26 12:18 -23.42840 -46.48145 2460 ft 4 kts 140°
2026-04-26 12:18 -23.42817 -46.48156 2460 ft 4 kts 173°
2026-04-26 12:19 -23.42811 -46.48156 2464 ft 4 kts 174°
2026-04-26 12:19 -23.42838 -46.48154 2460 ft 4 kts 174°
2026-04-26 12:19 -23.42844 -46.48153 2460 ft 0 kts 174°
2026-04-26 12:21 -23.42865 -46.48151 2462 ft 9 kts 174°
2026-04-26 12:21 -23.42951 -46.48142 2460 ft 13 kts 174°
2026-04-26 12:22 -23.43045 -46.48132 2460 ft 13 kts 174°
2026-04-26 12:22 -23.43113 -46.48148 2460 ft 10 kts 228°
2026-04-26 12:22 -23.43145 -46.48234 2464 ft 13 kts 251°
2026-04-26 12:22 -23.43173 -46.48330 2463 ft 14 kts 252°
2026-04-26 12:23 -23.43232 -46.48385 2466 ft 12 kts 178°
2026-04-26 12:23 -23.43302 -46.48366 2461 ft 5 kts 164°
2026-04-26 12:23 -23.43304 -46.48365 2461 ft 0 kts 164°
2026-04-26 12:24 -23.43308 -46.48364 2461 ft 3 kts 164°
2026-04-26 12:25 -23.43417 -46.48290 2459 ft 12 kts 82°
2026-04-26 12:25 -23.43393 -46.48202 2462 ft 15 kts 72°
2026-04-26 12:25 -23.43272 -46.47758 2461 ft 108 kts 73°
2026-04-26 12:25 -23.42987 -46.46671 2531 ft 181 kts 74°
2026-04-26 12:26 -23.42620 -46.45267 3404 ft 201 kts 72°
2026-04-26 12:26 -23.42211 -46.43827 4703 ft 195 kts 71°
2026-04-26 12:26 -23.41777 -46.42358 5449 ft 216 kts 70°
2026-04-26 12:26 -23.41281 -46.40689 5625 ft 247 kts 70°
2026-04-26 12:27 -23.40720 -46.38802 5885 ft 277 kts 70°
2026-04-26 12:27 -23.40197 -46.36727 6536 ft 291 kts 84°
2026-04-26 12:27 -23.40443 -46.34553 7502 ft 296 kts 106°
2026-04-26 12:27 -23.41116 -46.32419 8434 ft 301 kts 110°
2026-04-26 12:28 -23.41853 -46.30270 8862 ft 304 kts 110°
2026-04-26 12:28 -23.42626 -46.28119 9115 ft 308 kts 118°
2026-04-26 12:28 -23.44066 -46.26390 9744 ft 311 kts 148°
2026-04-26 12:28 -23.46036 -46.25485 10650 ft 311 kts 171°
2026-04-26 12:29 -23.48257 -46.25475 10946 ft 332 kts 195°
2026-04-26 12:29 -23.49723 -46.26027 11087 ft 345 kts 209°
2026-04-26 12:29 -23.53043 -46.29851 12249 ft 356 kts 248°
2026-04-26 12:30 -23.53873 -46.32390 13118 ft 356 kts 255°
2026-04-26 12:30 -23.54530 -46.35007 13962 ft 358 kts 256°
2026-04-26 12:30 -23.55161 -46.37638 14758 ft 361 kts 256°
2026-04-26 12:31 -23.56517 -46.42959 16287 ft 366 kts 255°
2026-04-26 12:31 -23.57236 -46.45633 17040 ft 369 kts 255°
2026-04-26 12:31 -23.57871 -46.48340 17761 ft 370 kts 256°
2026-04-26 12:31 -23.58511 -46.51073 18468 ft 373 kts 255°
2026-04-26 12:32 -23.59226 -46.53810 19082 ft 377 kts 254°
2026-04-26 12:32 -23.60015 -46.56550 19672 ft 381 kts 253°
2026-04-26 12:32 -23.61698 -46.62060 20746 ft 388 kts 252°
2026-04-26 12:33 -23.62602 -46.64847 21251 ft 392 kts 249°
2026-04-26 12:33 -23.63850 -46.67515 21739 ft 398 kts 240°
2026-04-26 12:33 -23.65357 -46.70056 22214 ft 401 kts 239°
2026-04-26 12:33 -23.66890 -46.72623 22656 ft 405 kts 240°
2026-04-26 12:34 -23.68419 -46.75219 23063 ft 408 kts 239°
2026-04-26 12:34 -23.70272 -46.77608 23422 ft 419 kts 225°
2026-04-26 12:34 -23.72685 -46.79441 23846 ft 427 kts 212°
2026-04-26 12:34 -23.75480 -46.80639 24197 ft 439 kts 199°
2026-04-26 12:35 -23.78469 -46.81393 24548 ft 443 kts 197°
2026-04-26 12:35 -23.81493 -46.82072 24936 ft 445 kts 196°
2026-04-26 12:35 -23.84538 -46.82738 25307 ft 447 kts 196°
2026-04-26 12:35 -23.87588 -46.83413 25708 ft 447 kts 197°
2026-04-26 12:36 -23.90642 -46.84108 26067 ft 449 kts 197°
2026-04-26 12:36 -23.93703 -46.84820 26415 ft 450 kts 197°
2026-04-26 12:36 -23.96765 -46.85544 26742 ft 451 kts 197°
2026-04-26 12:36 -23.99845 -46.86278 27081 ft 453 kts 198°
2026-04-26 12:37 -24.02891 -46.87008 27418 ft 454 kts 198°
2026-04-26 12:37 -24.06017 -46.87757 27793 ft 454 kts 198°
2026-04-26 12:37 -24.09071 -46.88489 28117 ft 455 kts 199°
2026-04-26 12:37 -24.12166 -46.89232 28422 ft 457 kts 198°
2026-04-26 12:38 -24.15278 -46.89978 28704 ft 458 kts 199°
2026-04-26 12:38 -24.18401 -46.90727 28989 ft 460 kts 199°
2026-04-26 12:38 -24.21527 -46.91477 29286 ft 461 kts 199°
2026-04-26 12:38 -24.24655 -46.92226 29699 ft 459 kts 199°
2026-04-26 12:39 -24.27774 -46.92972 30124 ft 457 kts 199°
2026-04-26 12:39 -24.30869 -46.93713 30584 ft 454 kts 199°
2026-04-26 12:39 -24.33951 -46.94453 31002 ft 453 kts 199°
2026-04-26 12:39 -24.37041 -46.95197 31355 ft 454 kts 199°
2026-04-26 12:40 -24.40093 -46.95932 31739 ft 453 kts 199°
2026-04-26 12:40 -24.43178 -46.96675 32049 ft 454 kts 199°
2026-04-26 12:40 -24.46282 -46.97424 32018 ft 457 kts 199°
2026-04-26 12:41 -24.52489 -46.98918 31999 ft 453 kts 199°
2026-04-26 12:41 -24.58628 -47.00455 31999 ft 453 kts 204°
2026-04-26 12:42 -24.64299 -47.03314 32008 ft 446 kts 219°
2026-04-26 12:42 -24.69534 -47.07085 32009 ft 451 kts 219°
2026-04-26 12:43 -24.74771 -47.10863 32008 ft 454 kts 219°
2026-04-26 12:43 -24.80087 -47.14658 32008 ft 456 kts 219°
2026-04-26 12:44 -24.85418 -47.18450 32008 ft 456 kts 219°
2026-04-26 12:44 -24.90747 -47.22242 32011 ft 455 kts 219°
2026-04-26 12:45 -24.96066 -47.26032 32012 ft 454 kts 219°
2026-04-26 12:45 -25.01374 -47.29820 32010 ft 454 kts 219°
2026-04-26 12:46 -25.06639 -47.33583 31977 ft 454 kts 219°
2026-04-26 12:46 -25.11927 -47.37365 31969 ft 452 kts 219°
2026-04-26 12:47 -25.17206 -47.41145 31970 ft 452 kts 219°
2026-04-26 12:47 -25.22489 -47.44930 31965 ft 452 kts 220°
2026-04-26 12:48 -25.27743 -47.48688 31962 ft 452 kts 219°
2026-04-26 12:48 -25.33017 -47.52456 31961 ft 451 kts 220°
2026-04-26 12:49 -25.38318 -47.56249 31961 ft 451 kts 220°
2026-04-26 12:49 -25.43551 -47.60004 31965 ft 451 kts 220°
2026-04-26 12:50 -25.48802 -47.63788 31981 ft 450 kts 220°
2026-04-26 12:50 -25.54052 -47.67576 31987 ft 450 kts 220°
2026-04-26 12:51 -25.59299 -47.71366 31998 ft 450 kts 220°
2026-04-26 12:51 -25.64559 -47.75169 31992 ft 451 kts 220°
2026-04-26 12:52 -25.69823 -47.78976 31988 ft 451 kts 220°
2026-04-26 12:52 -25.75079 -47.82785 31991 ft 452 kts 220°
2026-04-26 12:53 -25.80344 -47.86602 31991 ft 452 kts 220°
2026-04-26 12:53 -25.85573 -47.90397 31992 ft 451 kts 220°
2026-04-26 12:54 -25.90827 -47.94216 31987 ft 451 kts 220°
2026-04-26 12:54 -25.96080 -47.98038 31983 ft 451 kts 220°
2026-04-26 12:55 -26.01335 -48.01865 31981 ft 451 kts 220°
2026-04-26 12:55 -26.07193 -48.04680 32005 ft 470 kts 203°
2026-04-26 12:56 -26.13479 -48.06560 31983 ft 470 kts 203°
2026-04-26 12:56 -26.19796 -48.08495 31973 ft 470 kts 204°
2026-04-26 12:57 -26.26089 -48.10468 31971 ft 470 kts 204°
2026-04-26 12:57 -26.32389 -48.12461 31950 ft 470 kts 204°
2026-04-26 12:58 -26.38688 -48.14454 31076 ft 464 kts 204°
2026-04-26 12:58 -26.41768 -48.15422 30431 ft 456 kts 204°
2026-04-26 12:58 -26.44808 -48.16380 29725 ft 451 kts 204°
2026-04-26 12:58 -26.47808 -48.17329 29037 ft 446 kts 204°
2026-04-26 12:59 -26.50777 -48.18270 28351 ft 441 kts 204°
2026-04-26 12:59 -26.53674 -48.19190 27677 ft 436 kts 204°
2026-04-26 12:59 -26.56578 -48.20112 26997 ft 431 kts 204°
2026-04-26 12:59 -26.59453 -48.21026 26317 ft 427 kts 204°
2026-04-26 13:00 -26.62295 -48.21930 25653 ft 423 kts 204°
2026-04-26 13:00 -26.65110 -48.22825 24983 ft 419 kts 204°
2026-04-26 13:00 -26.67906 -48.23715 24312 ft 415 kts 204°
2026-04-26 13:00 -26.70664 -48.24592 23651 ft 411 kts 203°
2026-04-26 13:01 -26.73401 -48.25463 22988 ft 407 kts 203°
2026-04-26 13:01 -26.76110 -48.26327 22331 ft 403 kts 203°
2026-04-26 13:01 -26.78797 -48.27184 21672 ft 399 kts 203°
2026-04-26 13:01 -26.81451 -48.28030 21018 ft 396 kts 203°
2026-04-26 13:02 -26.84082 -48.28870 20363 ft 392 kts 202°
2026-04-26 13:02 -26.86695 -48.29704 19714 ft 389 kts 202°
2026-04-26 13:02 -26.89286 -48.30532 19066 ft 385 kts 202°
2026-04-26 13:02 -26.91855 -48.31353 18418 ft 382 kts 202°
2026-04-26 13:03 -26.94405 -48.32169 17770 ft 379 kts 202°
2026-04-26 13:03 -26.96898 -48.32967 17135 ft 375 kts 202°
2026-04-26 13:03 -26.99398 -48.33766 16505 ft 372 kts 202°
2026-04-26 13:03 -27.01880 -48.34557 15874 ft 370 kts 201°
2026-04-26 13:04 -27.04446 -48.34974 15234 ft 378 kts 186°
2026-04-26 13:04 -27.07072 -48.34852 14638 ft 377 kts 183°
2026-04-26 13:04 -27.09683 -48.34664 14011 ft 374 kts 182°
2026-04-26 13:04 -27.12274 -48.34470 13381 ft 371 kts 182°
2026-04-26 13:05 -27.14839 -48.34289 12763 ft 368 kts 183°
2026-04-26 13:05 -27.17385 -48.34121 12147 ft 365 kts 183°
2026-04-26 13:05 -27.19909 -48.33965 11537 ft 361 kts 183°
2026-04-26 13:05 -27.22404 -48.33816 10925 ft 358 kts 183°
2026-04-26 13:06 -27.24876 -48.33672 10547 ft 349 kts 182°
2026-04-26 13:06 -27.27249 -48.33531 10390 ft 335 kts 182°
2026-04-26 13:06 -27.29529 -48.33396 10233 ft 321 kts 182°
2026-04-26 13:06 -27.31718 -48.33269 10094 ft 309 kts 183°
2026-04-26 13:07 -27.33822 -48.33148 9968 ft 298 kts 183°
2026-04-26 13:07 -27.35877 -48.33032 9649 ft 295 kts 183°
2026-04-26 13:07 -27.37926 -48.32919 9326 ft 294 kts 182°
2026-04-26 13:07 -27.39959 -48.32805 8992 ft 292 kts 182°
2026-04-26 13:08 -27.41988 -48.32690 8632 ft 292 kts 181°
2026-04-26 13:08 -27.44010 -48.32574 8278 ft 290 kts 181°
2026-04-26 13:08 -27.45995 -48.32459 7918 ft 289 kts 181°
2026-04-26 13:08 -27.48006 -48.32344 7555 ft 288 kts 181°
2026-04-26 13:09 -27.50008 -48.32228 7192 ft 287 kts 180°
2026-04-26 13:09 -27.51996 -48.32113 6829 ft 286 kts 180°
2026-04-26 13:09 -27.53980 -48.31998 6469 ft 285 kts 180°
2026-04-26 13:09 -27.55956 -48.31883 6109 ft 284 kts 180°
2026-04-26 13:10 -27.57924 -48.31770 5751 ft 283 kts 179°
2026-04-26 13:10 -27.59862 -48.31658 5395 ft 281 kts 179°
2026-04-26 13:10 -27.61814 -48.31545 5051 ft 280 kts 179°
2026-04-26 13:10 -27.63754 -48.31433 4705 ft 278 kts 179°
2026-04-26 13:11 -27.65685 -48.31321 4356 ft 276 kts 178°
2026-04-26 13:11 -27.67589 -48.31368 3998 ft 273 kts 195°
2026-04-26 13:11 -27.69296 -48.32195 3772 ft 264 kts 211°
2026-04-26 13:11 -27.70858 -48.33257 3501 ft 258 kts 213°
2026-04-26 13:12 -27.72327 -48.34288 3363 ft 238 kts 213°
2026-04-26 13:12 -27.73662 -48.35215 3204 ft 219 kts 213°
2026-04-26 13:12 -27.74812 -48.36212 3037 ft 199 kts 238°
2026-04-26 13:12 -27.75095 -48.37606 2886 ft 175 kts 283°
2026-04-26 13:13 -27.74855 -48.38919 2567 ft 170 kts 284°
2026-04-26 13:13 -27.74628 -48.39750 2448 ft 167 kts 295°
2026-04-26 13:13 -27.74150 -48.40939 2257 ft 166 kts 297°
2026-04-26 13:13 -27.73600 -48.42075 2081 ft 164 kts 302°
2026-04-26 13:14 -27.73019 -48.43161 1885 ft 158 kts 302°
2026-04-26 13:14 -27.72452 -48.44211 1840 ft 153 kts 302°
2026-04-26 13:14 -27.71905 -48.45226 1643 ft 144 kts 302°
2026-04-26 13:14 -27.71402 -48.46159 1440 ft 134 kts 303°
2026-04-26 13:15 -27.70933 -48.47029 1294 ft 131 kts 303°
2026-04-26 13:15 -27.70457 -48.47912 1121 ft 132 kts 303°
2026-04-26 13:15 -27.69979 -48.48798 937 ft 132 kts 302°
2026-04-26 13:15 -27.69506 -48.49676 768 ft 131 kts 302°
2026-04-26 13:16 -27.69033 -48.50555 589 ft 131 kts 302°
2026-04-26 13:16 -27.68557 -48.51438 420 ft 134 kts 302°
2026-04-26 13:16 -27.68079 -48.52332 209 ft 133 kts 301°
2026-04-26 13:16 -27.67609 -48.53189 33 ft 122 kts 296°
2026-04-26 13:17 -27.67093 -48.54152 27 ft 30 kts 301°
2026-04-26 13:17 -27.66988 -48.54345 27 ft 28 kts 301°
2026-04-26 13:18 -27.66977 -48.54522 26 ft 10 kts 211°
2026-04-26 13:18 -27.67032 -48.54560 28 ft 7 kts 210°
2026-04-26 13:18 -27.67117 -48.54614 28 ft 7 kts 208°
2026-04-26 13:19 -27.67162 -48.54622 30 ft 7 kts 169°
2026-04-26 13:19 -27.67200 -48.54593 26 ft 7 kts 129°
2026-04-26 13:19 -27.67220 -48.54560 26 ft 3 kts 124°
2026-04-26 13:19 -27.67242 -48.54548 26 ft 5 kts 184°
2026-04-26 13:20 -27.67258 -48.54568 27 ft 3 kts 229°
2026-04-26 13:20 -27.67267 -48.54577 28 ft 0 kts 214°
2026-04-26 13:20 -27.67272 -48.54579 27 ft 0 kts 210°
2026-04-26 13:20 -27.67272 -48.54580 26 ft 0 kts 210°